Weather History for KGKJ - January, 2014

Change the Weather History Date:

Monday, January 27, 2014

  Actual Average Record
Temperature  
Mean Temperature 18 °F -  
Max Temperature 35 °F 32 °F 58 °F (1974)
Min Temperature 0 °F 13 °F -3 °F (1966)
Degree Days  
Heating Degree Days 48    
Moisture  
Dew Point 6 °F    
Average Humidity 71    
Maximum Humidity 93    
Minimum Humidity 42    
Precipitation  
Precipitation 0.01 in - - ()
Sea Level Pressure  
Sea Level Pressure 29.79 in    
Wind  
Wind Speed 15 mph (West)    
Max Wind Speed 25 mph    
Max Gust Speed 40 mph    
Visibility 5 miles    
Events Fog , Snow    
Averages and records for this station are not official NWS values.
T = Trace of Precipitation, MM = Missing Value Source: NWS Daily Summary

Daily Weather History Graph

Daily Weather History Graph

Search for Another Location

Airport or City:

Trip Planner

Search our weather history database for the weather conditions in past years. The results will help you decide how hot, cold, wet, or windy it might be!

Date:

Astronomy

Jan. 27, 2014 Rise Set
Actual Time 7:37 AM EST 5:30 PM EST
Civil Twilight 7:07 AM EST 6:00 PM EST
Nautical Twilight 6:34 AM EST 6:33 PM EST
Astronomical Twilight 6:01 AM EST 7:06 PM EST
Moon 4:17 AM EST (1/27) 2:14 PM EST (1/27)
Length of Visible Light 10h 52m
Length of Day
9h 52m
Waning Crescent, 15% of the Moon is Illuminated
Jan 27
Waning Crescent
Jan 30
New
Feb 6
First Quarter
Feb 14
Full
Feb 22
Last Quarter

Hourly Weather History & Observations

Time (EST) Temp. Windchill Dew Point Humidity Pressure Visibility Wind Dir Wind Speed Gust Speed Precip Events Conditions
12:53 AM 30.0 °F 21.1 °F 21.9 °F 72% 29.44 in 10.0 mi South 10.4 mph 17.3 mph N/A   Partly Cloudy
1:53 AM 32.0 °F 23.0 °F 23.0 °F 69% 29.39 in 10.0 mi South 11.5 mph 20.7 mph N/A   Scattered Clouds
2:53 AM 35.1 °F 25.2 °F 26.1 °F 70% 29.38 in 4.0 mi SW 16.1 mph 28.8 mph 0.00 in Snow Light Snow
3:10 AM 35.6 °F 27.1 °F 26.6 °F 70% 29.34 in 9.0 mi SW 12.7 mph 21.9 mph 0.00 in   Overcast
3:18 AM 33.8 °F 21.6 °F 26.6 °F 75% 29.39 in 1.2 mi West 23.0 mph 34.5 mph 0.00 in Snow Light Snow
3:24 AM 28.4 °F 14.7 °F 24.8 °F 86% 29.40 in 0.5 mi West 21.9 mph 34.5 mph 0.00 in Fog , Snow Snow
3:26 AM 28.4 °F 14.1 °F 24.8 °F 86% 29.40 in 0.5 mi West 24.2 mph 34.5 mph 0.00 in Fog , Snow Snow
3:34 AM 26.6 °F 12.7 °F 24.8 °F 93% 29.41 in 1.0 mi West 20.7 mph 31.1 mph 0.00 in Snow Light Snow
3:50 AM 26.6 °F 14.3 °F 23.0 °F 86% 29.43 in 0.8 mi West 16.1 mph 32.2 mph 0.00 in Snow Light Snow
3:53 AM 27.0 °F 14.7 °F 23.0 °F 85% 29.49 in 0.8 mi West 16.1 mph 23.0 mph 0.00 in Snow Light Snow
4:10 AM 24.8 °F 9.6 °F 19.4 °F 80% 29.45 in 0.5 mi West 23.0 mph 34.5 mph 0.00 in Snow Snow
4:18 AM 24.8 °F 9.6 °F 19.4 °F 80% 29.46 in 0.5 mi West 23.0 mph 34.5 mph 0.00 in Fog , Snow Light Snow
4:35 AM 24.8 °F 11.1 °F 19.4 °F 80% 29.49 in 0.2 mi West 18.4 mph 29.9 mph 0.00 in Fog , Snow Snow
4:40 AM 23.0 °F 9.6 °F 19.4 °F 86% 29.49 in 0.2 mi West 16.1 mph 31.1 mph 0.00 in Fog , Snow Snow
4:51 AM 21.2 °F 6.0 °F 19.4 °F 93% 29.50 in 0.5 mi West 19.6 mph 31.1 mph 0.00 in Fog , Snow Light Snow
4:53 AM 21.9 °F 7.8 °F 18.0 °F 85% 29.57 in 0.5 mi West 17.3 mph 31.1 mph 0.00 in Fog , Snow Light Snow
5:33 AM 21.2 °F 4.2 °F 17.6 °F 86% 29.55 in 0.2 mi West 25.3 mph 40.3 mph 0.01 in Fog , Snow Snow
5:53 AM 16.0 °F -0.4 °F 12.0 °F 84% 29.67 in 0.2 mi WNW 18.4 mph 35.7 mph 0.01 in Fog , Snow Heavy Snow
6:08 AM 14.0 °F -3.0 °F 8.6 °F 79% 29.63 in 0.5 mi WNW 18.4 mph 31.1 mph 0.00 in Snow Snow
6:16 AM 12.2 °F -3.7 °F 8.6 °F 85% 29.64 in 1.0 mi WNW 15.0 mph 32.2 mph 0.00 in Snow Light Snow
6:29 AM 12.2 °F -4.8 °F 6.8 °F 79% 29.66 in 2.0 mi WNW 17.3 mph 29.9 mph 0.00 in Snow Light Snow
6:39 AM 12.2 °F -6.3 °F 6.8 °F 79% 29.68 in 3.0 mi WNW 20.7 mph 27.6 mph 0.00 in Snow Light Snow
6:48 AM 12.2 °F -5.8 °F 5.0 °F 73% 29.69 in 2.0 mi West 19.6 mph 28.8 mph 0.00 in Snow Light Snow
6:53 AM 12.0 °F -5.6 °F 5.0 °F 73% 29.77 in 3.0 mi West 18.4 mph 28.8 mph 0.00 in Snow Light Snow
7:53 AM 10.9 °F -7.9 °F -0.0 °F 61% 29.83 in 2.5 mi West 20.7 mph 31.1 mph 0.00 in   Overcast
8:03 AM 10.4 °F -6.6 °F -0.4 °F 62% 29.78 in 3.0 mi West 16.1 mph 31.1 mph N/A   Haze
8:53 AM 10.0 °F -4.5 °F -0.0 °F 64% 29.89 in 7.0 mi WNW 11.5 mph - 0.00 in Snow Light Snow
9:08 AM 10.4 °F -5.4 °F 1.4 °F 67% 29.83 in 8.0 mi West 13.8 mph 19.6 mph 0.00 in   Overcast
9:24 AM 10.4 °F -6.0 °F -0.4 °F 62% 29.85 in 5.0 mi West 15.0 mph 28.8 mph 0.00 in   Haze
9:53 AM 10.9 °F -5.4 °F -0.9 °F 59% 29.94 in 8.0 mi West 15.0 mph 27.6 mph 0.00 in   Mostly Cloudy
10:27 AM 10.4 °F -4.8 °F -0.4 °F 62% 29.89 in 6.0 mi West 12.7 mph 23.0 mph 0.00 in Snow Light Snow
10:34 AM 10.4 °F -6.0 °F -2.2 °F 57% 29.90 in 9.0 mi West 15.0 mph 25.3 mph 0.00 in   Mostly Cloudy
10:53 AM 10.0 °F -5.9 °F -2.0 °F 58% 29.97 in 10.0 mi West 13.8 mph 23.0 mph 0.00 in   Mostly Cloudy
11:17 AM 10.4 °F -5.4 °F 1.4 °F 67% 29.92 in 1.5 mi West 13.8 mph 24.2 mph 0.00 in Snow Light Snow
11:22 AM 10.4 °F -3.3 °F 3.2 °F 73% 29.92 in 0.8 mi West 10.4 mph 21.9 mph 0.00 in Snow Light Snow
11:40 AM 10.4 °F -2.4 °F 3.2 °F 73% 29.93 in 1.0 mi West 9.2 mph - 0.00 in Snow Light Snow
11:53 AM 10.9 °F -2.6 °F 3.9 °F 73% 29.99 in 1.5 mi WNW 10.4 mph - 0.00 in Snow Light Snow
12:01 PM 12.2 °F -1.8 °F 3.2 °F 67% 29.92 in 2.5 mi WNW 11.5 mph 17.3 mph 0.00 in Snow Light Snow
12:04 PM 12.2 °F -1.8 °F 1.4 °F 62% 29.92 in 4.0 mi West 11.5 mph 17.3 mph 0.00 in Snow Light Snow
12:53 PM 10.9 °F -4.1 °F -2.0 °F 56% 29.99 in 6.0 mi West 12.7 mph 23.0 mph 0.00 in   Haze
1:53 PM 10.9 °F -5.4 °F -8.0 °F 42% 29.99 in 10.0 mi WNW 15.0 mph 23.0 mph N/A   Partly Cloudy
2:53 PM 10.9 °F -4.7 °F -5.1 °F 49% 30.00 in 10.0 mi West 13.8 mph 19.6 mph N/A   Mostly Cloudy
3:53 PM 9.0 °F -7.3 °F -2.9 °F 59% 30.03 in 10.0 mi West 13.8 mph 24.2 mph N/A   Mostly Cloudy
4:20 PM 8.6 °F -7.7 °F -0.4 °F 67% 29.98 in 3.0 mi West 13.8 mph - 0.00 in Snow Light Snow
4:53 PM 8.1 °F -7.0 °F -0.0 °F 70% 30.06 in 9.0 mi WSW 11.5 mph - 0.00 in   Mostly Cloudy
5:53 PM 8.1 °F -6.2 °F -4.0 °F 58% 30.07 in 10.0 mi WSW 10.4 mph 16.1 mph 0.00 in   Overcast
6:53 PM 5.0 °F -8.1 °F -5.1 °F 63% 30.11 in 10.0 mi WSW 8.1 mph - N/A   Clear
7:53 PM 3.9 °F -12.2 °F -5.1 °F 66% 30.14 in 10.0 mi WSW 11.5 mph - N/A   Partly Cloudy
8:35 PM 3.2 °F -15.9 °F -5.8 °F 66% 30.07 in 10.0 mi West 16.1 mph 23.0 mph N/A   Mostly Cloudy
8:53 PM 1.9 °F -14.7 °F -7.1 °F 66% 30.17 in 10.0 mi WSW 11.5 mph - N/A   Mostly Cloudy
9:15 PM 1.4 °F -16.1 °F -7.6 °F 66% 30.09 in 10.0 mi WSW 12.7 mph 20.7 mph N/A   Partly Cloudy
9:53 PM 1.0 °F -17.3 °F -7.1 °F 69% 30.20 in 10.0 mi WSW 13.8 mph 21.9 mph N/A   Scattered Clouds
10:03 PM 1.4 °F -15.3 °F -7.6 °F 66% 30.11 in 10.0 mi WSW 11.5 mph 18.4 mph N/A   Mostly Cloudy
10:53 PM -0.0 °F -16.3 °F -7.1 °F 72% 30.23 in 5.0 mi WSW 10.4 mph - N/A   Haze
11:47 PM -0.4 °F -16.7 °F -7.6 °F 72% 30.16 in 1.8 mi WSW 10.4 mph - 0.00 in Snow Light Snow
11:53 PM -0.9 °F -17.4 °F -7.1 °F 75% 30.26 in 1.8 mi WSW 10.4 mph 19.6 mph 0.00 in Snow Light Snow